Location: Beetenbrück
(52.8113°N, 9.5946°E)
Time: 17:22:07
(UTC+00:00)

Cosmos 2251 Rocket - Pass Details

Date: 14 April 2026
Orbit: 761 x 788 km, 74.0° (Epoch: 9 May)

Event Time Altitude Azimuth Distance (km) Brightness Sun altitude
Rises 22:51:58 0° 334° (NNW) 3,269 7.9 -27.2°
Reaches altitude 10° 22:54:22 10° 336° (NNW) 2,342 6.9 -27.2°
Enters shadow 22:59:42 77° 63° (ENE) 810 3.5 -27.3°
